Location: Durrington
(51.1833°N, 1.7667°W)
Time: 17:13:32
(UTC+00:00)

Daily predictions for brighter satellites

Satellite Brightness Start Highest point End
(mag) Time Altitude Azimuth Time Altitude Azimuth Time Altitude Azimuth
Cosmos 2344 3.7 16:39:52 10° SW 16:47:21 81° SE 16:55:51 10° NE
Cosmos 2263 Rocket 3.7 16:45:06 10° N 16:48:39 17° NNE 16:52:11 10° ENE
H-2A R/B 3.3 16:49:35 10° SE 16:53:05 35° ENE 16:56:35 10° N
Cosmos 1607 4.0 16:48:06 10° NW 16:54:20 88° SW 17:00:37 10° SE
Sich 1 3.8 16:51:44 10° N 16:55:37 31° ENE 16:59:32 10° SE
AQUARIUS 4.5 16:52:17 10° SE 16:56:35 46° ENE 17:00:54 10° N
SeaSat 1 2.9 16:52:20 10° ESE 16:56:54 39° NE 17:01:27 10° NNW
Lacrosse 4 Rocket 3.1 16:55:12 10° SE 16:57:33 15° ESE 16:59:54 10° ENE
ASTEX 1 3.4 16:52:39 10° N 16:57:41 75° E 17:02:40 10° S
Cosmos 2123 Rocket 4.1 16:52:33 10° S 16:58:46 90° E 17:05:00 10° N
Envisat 3.7 16:54:54 10° ESE 16:59:20 31° ENE 17:03:48 10° N
Cosmos 2082 3.9 16:54:00 10° NNW 16:59:29 50° NE 17:04:56 10° SE
Cosmos 1666 Rocket 4.5 16:55:53 10° N 16:59:37 26° ENE 17:03:18 10° SE
ATLAS 5 CENTAUR R/B 2.5 16:54:22 10° NW 17:00:00 83° SW 17:06:31 10° SE
COSMO-SKYMED 1 4.3 16:58:45 10° ENE 17:00:56 13° E 17:03:04 10° ESE
Cosmos 1725 Rocket 4.5 16:56:47 10° NNW 17:03:05 69° W 17:09:21 10° S
CZ-4 R/B 2.8 17:00:25 10° ESE 17:03:15 18° ENE 17:06:04 10° NNE
Cosmos 1633 3.6 17:00:51 10° NNE 17:03:58 26° ENE 17:07:04 10° SE
ERBS 4.0 17:01:45 10° S 17:04:11 19° SE 17:06:36 10° E
Cosmos 1697 Rocket 3.9 17:02:51 10° SSE 17:07:02 22° E 17:11:13 10° NE
CZ-4B R/B 4.1 17:03:26 10° S 17:08:36 52° W 17:13:47 10° NNW
CENTAUR R/B 3.9 17:10:27 10° WNW 17:16:39 32° N 17:23:14 12° ENE
Cosmos 2221 2.5 17:13:07 10° S 17:17:26 89° WSW 17:21:50 10° N
CZ-3B R/B 2.4 17:16:35 10° WNW 17:17:50 23° N 17:18:20 19° NNE
Cosmos 1825 4.4 17:18:19 10° NNW 17:21:39 29° W 17:24:57 10° SSW
Meteor 1-27 4.3 17:16:15 10° S 17:21:56 84° E 17:27:45 10° NNE
Cosmos 1656 3.9 17:23:21 10° S 17:28:39 49° ESE 17:33:55 10° NE
Cosmos 1862 3.6 17:26:31 10° N 17:30:20 41° ENE 17:34:07 10° SE
YAOGAN 1 3.5 17:26:52 10° ESE 17:30:29 27° ENE 17:34:08 10° N
ATLAS 3B R/B 3.8 17:31:05 10° WNW 17:36:42 28° N 17:41:17 14° NE
COBE Rocket 3.9 17:33:13 10° NNE 17:37:57 54° E 17:42:32 10° S
YAOGAN 6 3.1 17:34:49 10° SE 17:38:00 34° ENE 17:41:12 10° N
Cosmos 1680 Rocket 4.3 17:33:31 10° SSE 17:38:00 30° E 17:41:27 15° NE
Meteor 2-2 Rocket 4.3 17:33:27 10° S 17:39:17 86° E 17:45:03 10° NNE
Ariane Rocket 4.1 17:40:34 18° E 17:42:30 22° ENE 17:46:21 10° N
Cosmos 1513 Rocket 4.5 17:37:58 10° N 17:44:24 71° ENE 17:50:44 10° SSE
CSL-04 Debris 4.5 17:41:08 10° SE 17:46:19 44° ENE 17:51:31 10° N
Cosmos 773 Rocket 4.2 17:43:27 10° SSW 17:48:37 71° WNW 17:53:52 10° NNE
SKYMED 2 4.1 17:45:46 11° NNE 17:49:32 36° E 17:53:32 10° SSE
Cosmos 2034 Rocket 4.0 17:45:28 10° N 17:51:47 60° ENE 17:58:04 10° SSE
Cosmos 1805 Rocket 4.4 17:52:06 10° NNW 17:56:22 53° W 18:00:37 10° S
SMAP 4.1 17:51:52 10° S 17:56:23 49° W 18:00:56 10° NNW
Okean-O 2.9 17:54:10 10° S 17:58:35 72° WSW 18:03:03 10° NNW
Cosmos 2369 Rocket 4.4 17:55:31 10° WNW 17:58:42 15° NNW 18:01:54 10° N
CSL-04 Rocket 3.7 17:56:02 10° SE 18:01:13 55° ENE 18:06:24 10° N
CZ-2D R/B 4.2 18:03:50 29° NE 18:03:50 29° NE 18:06:38 10° N
Cosmos 923 Rocket 4.0 17:58:13 10° S 18:03:21 60° ESE 18:07:20 17° NNE
Cosmos 1624 Rocket 4.0 18:00:06 10° NNW 18:05:25 59° ENE 18:10:41 10° SE
H-2A R/B 3.9 18:07:12 15° NNE 18:07:12 15° NNE 18:08:57 10° NNE
Cosmos 2056 Rocket 3.5 18:01:00 10° NNW 18:06:05 57° ENE 18:11:10 10° SE
Cosmos 1867 4.5 18:01:17 10° WSW 18:06:31 44° NW 18:10:45 15° NNE
Cosmos 1634 Rocket 4.3 18:05:09 10° N 18:10:58 40° ENE 18:16:42 10° SE
Cosmos 1980 Rocket 2.7 18:06:38 10° S 18:11:47 37° ESE 18:13:25 31° ENE
Cosmos 1869 4.3 18:09:35 10° SSW 18:13:23 46° WNW 18:17:13 10° N
Cosmos 2297 Rocket 3.9 18:08:36 10° NW 18:13:39 34° WSW 18:18:41 10° S
Cosmos 2227 Rocket 3.8 18:08:48 10° NW 18:13:57 37° WSW 18:19:04 10° S
USA 215 3.3 18:14:47 28° E 18:18:26 66° NNE 18:24:54 10° WNW
Tsikada Rocket 4.1 18:14:02 10° SSE 18:20:11 53° E 18:26:24 10° NNE
NOAA 15 4.5 18:15:32 10° SSE 18:20:50 81° ENE 18:26:09 10° NNW
Cosmos 1356 Rocket 4.3 18:17:02 10° SSW 18:21:07 51° WNW 18:25:17 10° N
Cosmos 1633 Rocket 3.5 18:19:56 10° NNW 18:24:18 62° W 18:28:39 10° S
BREEZE-M DEB (TANK) 2.3 18:20:34 10° W 18:27:30 71° S 18:28:05 56° SE
NOSS 2-3 (E) 3.8 18:24:47 10° SSW 18:29:10 61° SE 18:30:19 47° ENE
Cosmos 2279 Rocket 4.5 18:26:09 10° N 18:31:41 36° ENE 18:31:41 36° ENE
USA 229 DEB 3.9 18:25:35 10° SW 18:32:12 70° NW 18:36:39 24° NE
USA 229 3.8 18:25:42 10° SW 18:32:19 70° NW 18:36:43 24° NE
Cosmos 2263 Rocket 2.2 18:28:24 10° NNW 18:33:54 54° NE 18:35:08 45° E
SeaSat 1 3.6 18:29:41 10° S 18:34:22 44° WSW 18:39:07 10° NW
Lacrosse 4 Rocket 1.4 18:31:39 10° SW 18:35:42 74° NW 18:36:37 51° NNE
NOSS 3-1 (C) 3.6 18:30:49 10° SW 18:36:32 69° NW 18:40:18 27° NE
NOSS 3-1 (A) 3.3 18:31:34 10° SW 18:37:15 90° WNW 18:40:26 32° NE
COSMO-SKYMED 1 2.6 18:34:19 17° NNE 18:37:40 81° WNW 18:42:01 10° SSW
Cosmos 2369 3.7 18:32:12 10° SSW 18:37:53 85° WNW 18:41:16 26° NNE
CZ-4 R/B 1.9 18:33:50 10° S 18:37:55 59° W 18:41:57 10° NNW
Envisat 4.1 18:33:22 10° S 18:38:13 45° W 18:43:07 10° NNW
Cosmos 1151 Rocket 2.9 18:34:15 10° S 18:38:38 88° E 18:40:55 28° N
NOSS 2-3 (D) 3.7 18:34:19 10° SSW 18:38:43 67° SE 18:39:27 57° E
Cosmos 1933 Rocket 3.3 18:34:25 10° N 18:38:47 81° E 18:41:19 25° SSE
ERBS 2.8 18:36:51 10° WSW 18:39:39 59° W 18:39:39 59° W
GEOS 3 Rocket 3.6 18:38:02 35° NE 18:40:20 81° NW 18:45:37 10° SW
Cosmos 1328 Rocket 3.6 18:37:48 10° SSW 18:42:13 80° W 18:45:05 22° N
Cosmos 1515 Rocket 3.6 18:39:49 10° S 18:43:38 62° SE 18:43:38 62° SE
Cosmos 1939 Rocket 3.1 18:48:05 60° N 18:48:05 60° N 18:51:32 10° NNW
Cosmos 1420 Rocket 3.9 18:44:23 10° NNW 18:49:33 63° ENE 18:49:36 63° ENE
Cosmos 1697 Rocket 2.8 18:44:45 10° SW 18:50:25 76° WNW 18:53:17 30° NNE
Cosmos 2360 4.1 18:46:51 10° SSW 18:52:34 80° ESE 18:54:13 48° NE
Cosmos 1452 Rocket 3.7 18:49:34 10° NNW 18:54:14 54° NNE 18:54:14 54° NNE
Cosmos 2278 3.7 18:51:03 10° SSW 18:56:45 82° WNW 18:58:57 39° NNE
USA 116 4.3 19:00:01 38° N 19:01:47 75° WNW 19:06:50 10° SSW
YAOGAN 1 3.8 19:02:21 10° S 19:06:26 41° W 19:10:34 10° NNW
CENTAUR R/B 3.5 19:02:08 10° NW 19:09:16 44° NNE 19:10:25 42° NE
Timation 1 Rocket 4.2 19:04:19 10° NNW 19:10:20 86° ENE 19:11:03 71° SE
Cosmos 158 Rocket 3.9 19:06:06 10° SSW 19:11:11 83° SW 19:11:11 83° SW
Cosmos 2112 Rocket 4.4 19:08:10 10° SW 19:13:19 61° WNW 19:14:49 43° N
Cosmos 2227 4.5 19:07:39 10° NW 19:13:23 67° WSW 19:15:23 41° S
Cosmos 2278 Rocket 4.3 19:12:43 10° N 19:14:34 14° N 19:14:34 14° N
NOSS 2-3 (C) 4.0 19:12:08 10° SW 19:16:27 69° WNW 19:16:27 69° WNW
Cosmos 1844 Rocket 4.1 19:11:58 10° NNW 19:14:53 25° N 19:14:53 25° N
Cosmos 1680 Rocket 4.3 19:14:52 10° SW 19:19:55 48° WNW 19:21:48 34° N
Ariane Rocket 3.1 19:20:47 69° WSW 19:21:00 70° WSW 19:26:06 10° NNW
USA 238 DEB 3.7 19:15:41 10° NW 19:22:48 67° NE 19:23:07 66° NE
USA 238 3.7 19:15:47 10° NW 19:22:53 67° NE 19:23:13 66° NE
NOSS 3-2 (A) 3.9 19:20:56 10° NW 19:28:08 66° NE 19:28:31 65° ENE
ATLAS 3B R/B 3.4 19:22:54 10° NW 19:28:32 39° NNE 19:28:32 39° NNE
Gblst 52 Del rocket 4.3 19:23:45 10° W 19:30:14 82° WSW 19:30:14 82° WSW
H-2A R/B 3.9 19:47:50 22° N 19:47:50 22° N 19:49:40 10° NNW
Cosmos 1980 Rocket 3.1 19:50:12 10° SW 19:55:14 47° WNW 19:55:14 47° WNW
USA 215 3.5 20:02:07 62° WSW 20:02:07 62° WSW 20:08:01 10° WNW
NOSS 3-2 (C) 4.3 20:05:20 10° NW 20:11:03 59° NNW 20:11:03 59° NNW
Cosmos 2263 Rocket 3.8 20:12:44 10° NW 20:16:52 30° W 20:16:52 30° W
CENTAUR R/B 4.0 20:52:57 10° NW 20:57:36 42° NW 20:57:36 42° NW
